Location: Edinburgh
(55.9500°N, 3.1600°W)
Time: 23:45:36
(UTC+01:00)

AO-91 - Pass Details

Date: 04 June 2024
Orbit: 442 x 732 km, 97.6° (Epoch: 20 June)

Event Time Altitude Azimuth Distance (km) Brightness Sun altitude
Rises 01:09:56 0° 5° (N) 2,992 ? -11.6°
Reaches altitude 10° 01:13:06 10° 341° (NNW) 2,131 ? -11.6°
Maximum altitude 01:15:28 14° 310° (NW) 1,904 ? -11.6°
Drops below altitude 10° 01:17:53 10° 280° (W) 2,190 ? -11.6°
Sets 01:21:14 0° 256° (WSW) 3,138 ? -11.6°
